EFW8MP LPMA-EGKK

Flight info

Callsign EFW8MP
Flight time N/A
Altitude 34000
Route DEGUN1W DEGUN DCT RULET DCT GALPA DCT VABEM DCT TUNAV DCT IBIDO DCT DEMOS DCT KORUL DCT FEJAC DCT JSY DCT REVTU UP88 VASUX VASUX1G
Aircraft A321/M-SDE3FGIJ1KRWXY/SB1

Departure

Time 2026-05-04 15:46
Airport Cristiano Ronaldo International Airport (LPMA)

Arrival

Time N/A
Airport London Gatwick Airport (EGKK)
Time Latitude Longitude Altitude Speed Heading
2026-05-04 14:24 32.69334 -16.77695 170 ft 0 kts 137°
2026-05-04 15:30 32.69365 -16.77763 169 ft 4 kts 46°
2026-05-04 15:30 32.69354 -16.77777 169 ft 0 kts 46°
2026-05-04 15:37 32.69354 -16.77776 169 ft 0 kts 46°
2026-05-04 15:37 32.69358 -16.77772 169 ft 1 kts 46°
2026-05-04 15:37 32.69365 -16.77763 169 ft 2 kts 46°
2026-05-04 15:38 32.69375 -16.77750 169 ft 3 kts 46°
2026-05-04 15:38 32.69398 -16.77722 169 ft 10 kts 46°
2026-05-04 15:38 32.69469 -16.77634 169 ft 16 kts 46°
2026-05-04 15:38 32.69546 -16.77538 169 ft 16 kts 47°
2026-05-04 15:39 32.69625 -16.77440 169 ft 17 kts 46°
2026-05-04 15:39 32.69705 -16.77342 170 ft 14 kts 46°
2026-05-04 15:39 32.69734 -16.77306 173 ft 0 kts 46°
2026-05-04 15:41 32.69739 -16.77301 174 ft 4 kts 46°
2026-05-04 15:41 32.69777 -16.77253 178 ft 11 kts 46°
2026-05-04 15:41 32.69804 -16.77220 181 ft 0 kts 46°
2026-05-04 15:44 32.69806 -16.77218 181 ft 3 kts 46°
2026-05-04 15:44 32.69888 -16.77175 187 ft 21 kts
2026-05-04 15:44 32.70026 -16.77158 193 ft 20 kts 35°
2026-05-04 15:44 32.70136 -16.77039 189 ft 25 kts 44°
2026-05-04 15:45 32.70275 -16.76874 194 ft 20 kts 45°
2026-05-04 15:45 32.70330 -16.76833 190 ft 12 kts 21°
2026-05-04 15:45 32.70405 -16.76778 189 ft 15 kts 79°
2026-05-04 15:45 32.70326 -16.76816 187 ft 34 kts 225°
2026-05-04 15:46 32.69977 -16.77226 200 ft 104 kts 224°
2026-05-04 15:46 32.69311 -16.78005 173 ft 162 kts 225°
2026-05-04 15:46 32.68517 -16.78958 879 ft 158 kts 222°
2026-05-04 15:46 32.67572 -16.79597 1545 ft 158 kts 195°
2026-05-04 15:47 32.66445 -16.79678 1820 ft 175 kts 176°
2026-05-04 15:47 32.65162 -16.79840 1973 ft 195 kts 202°
2026-05-04 15:47 32.63836 -16.80381 2104 ft 215 kts 190°
2026-05-04 15:47 32.62243 -16.80505 2287 ft 235 kts 182°
2026-05-04 15:48 32.60611 -16.80344 2712 ft 242 kts 167°
2026-05-04 15:48 32.59100 -16.79331 3049 ft 260 kts 136°
2026-05-04 15:48 32.57819 -16.75364 4225 ft 273 kts 84°
2026-05-04 15:49 32.58431 -16.73244 4831 ft 277 kts 56°
2026-05-04 15:49 32.59692 -16.71508 5436 ft 279 kts 47°
2026-05-04 15:49 32.61029 -16.69824 6055 ft 282 kts 46°
2026-05-04 15:49 32.62383 -16.68125 6665 ft 285 kts 46°
2026-05-04 15:50 32.63751 -16.66405 7243 ft 288 kts 46°
2026-05-04 15:50 32.65128 -16.64665 7832 ft 290 kts 46°
2026-05-04 15:50 32.66514 -16.62907 8424 ft 293 kts 46°
2026-05-04 15:50 32.67914 -16.61131 9004 ft 296 kts 46°
2026-05-04 15:51 32.69326 -16.59337 9578 ft 299 kts 45°
2026-05-04 15:51 32.70750 -16.57524 10144 ft 302 kts 45°
2026-05-04 15:51 32.72219 -16.55652 10345 ft 319 kts 45°
2026-05-04 15:51 32.73776 -16.53672 10473 ft 337 kts 45°
2026-05-04 15:52 32.75416 -16.51587 10590 ft 353 kts 45°
2026-05-04 15:52 32.77132 -16.49407 10718 ft 369 kts 45°
2026-05-04 15:52 32.78925 -16.47132 10842 ft 384 kts 45°
2026-05-04 15:52 32.80783 -16.44776 10965 ft 398 kts 45°
2026-05-04 15:53 32.82702 -16.42340 11109 ft 409 kts 45°
2026-05-04 15:53 32.84663 -16.39853 11455 ft 414 kts 45°
2026-05-04 15:53 32.86641 -16.37340 11859 ft 418 kts 46°
2026-05-04 15:53 32.88642 -16.34831 12314 ft 419 kts 45°
2026-05-04 15:54 32.90652 -16.32312 12738 ft 421 kts 45°
2026-05-04 15:54 32.92674 -16.29771 13154 ft 424 kts 45°
2026-05-04 15:54 32.94709 -16.27211 13538 ft 427 kts 46°
2026-05-04 15:54 32.96757 -16.24631 13944 ft 430 kts 46°
2026-05-04 15:55 32.98816 -16.22033 14351 ft 433 kts 45°
2026-05-04 15:55 33.00891 -16.19410 14751 ft 435 kts 46°
2026-05-04 15:55 33.02972 -16.16777 15125 ft 438 kts 46°
2026-05-04 15:55 33.05064 -16.14130 15495 ft 440 kts 46°
2026-05-04 15:56 33.07168 -16.11463 15858 ft 442 kts 46°
2026-05-04 15:56 33.09278 -16.08784 16210 ft 444 kts 46°
2026-05-04 15:56 33.11397 -16.06092 16563 ft 447 kts 46°
2026-05-04 15:56 33.13528 -16.03381 16913 ft 449 kts 46°